北斗三号 M2 (BEIDOU 3M2)

导读

BEIDOU-3 M2 是中国北斗三号全球卫星导航系统中的一颗中圆地球轨道(MEO)卫星,主要用于提供高精度定位、导航和授时服务。该卫星采用先进的国产化技术,增强了系统的稳定性和覆盖能力,支持全球范围内的多频信号传输,提升了定位精度和抗干扰能力。作为北斗三号系统的重要组成部分,BEIDOU-3 M2 有助于实现中国在全球卫星导航领域的自主可控,广泛应用于交通、通信、农业、应急救援等多个领域。

基本信息
目录编号:
43002
目录名称:
BEIDOU 3M2
国际标识:
2017-069B
轨道中心:
EARTH
卫星名称:
北斗三号 M2
卫星全名:
北斗三号 M2 (BEIDOU 3M2)
卫星状态:
在轨 (已飞行3234 天)
发射日期:
2017-11-05 UTC
国别 :
中国 (CN)
星等 :
--
该卫星已列入 空间交会检测服务 Space Conjunction Data Service (SCDS) ,当前飞行风险评估等级: 无高风险
轨道信息
数据来源 国际轨道数据 AOE轨道数据
星历时间 2026-09-12T09:24:38+0800
1天前
查看轨道信息
2026-09-10T06:00:00+0800
3天前
查看轨道信息
半长轴 27906.249km 27906.249km
偏心率 0.0006279 0.0006267
轨道倾角 56.771° 56.769°
近地点辐角 3.969° 4.220°
升交点赤经 60.263° 60.334°
平近点角 356.054° 359.642°
近地点 21510.589km 21510.623km
远地点 21545.635km 21545.601km
周期 773.236分钟 773.236分钟
每日圈数 1.862304 1.862304
详细信息
平衡模式:
三轴稳定
制造商(研发单位):
中国空间技术研究院
制造商所在国:
中国
使用方式:
暂无
工作目标:
为全球用户提供连续、稳定、可靠的北斗导航、定位服务
预期寿命:
12年
卫星简介
北斗卫星导航系统是中国着眼于国家安全和经济社会发展需要,自主建设运行的全球卫星导航系统,是为全球用户提供全天候、全天时、高精度的定位、导航和授时服务的国家重要时空基础设施。该卫星仍在工作。
2D轨道图
3D轨道图
轨道高度分析图
轨道倾角分析图
轨道综合分析图
查看轨道综合分析图
与全量物体交会距离演化趋势
与全量物体交会风险概率演化趋势